Location: Alexandria
(38.8050°N, 77.0470°W)
Time: 12:24:49
(UTC-05:00)

N. Korean satellite - Pass Details

Date: 12 November 2017
Orbit: 460 x 515 km, 97.2° (Epoch: 16 November)

Event Time Altitude Azimuth Distance (km) Brightness Sun altitude
Rises 17:58:45 0° 160° (SSE) 2,470 10.1 -12.3°
Reaches altitude 10° 18:00:47 10° 157° (SSE) 1,602 9.1 -12.7°
Maximum altitude 18:04:10 62° 76° (ENE) 524 6.4 -13.4°
Drops below altitude 10° 18:07:38 10° 355° (N) 1,629 9.2 -14.0°
Sets 18:09:42 0° 352° (N) 2,517 10.2 -14.4°
